Regional Weather Roundup
Issued by NWS Green Bay, WI

Home | Current Version | Previous Version | Graphics & Text | Print | Product List | Glossary Off
Versions: 1 2 3 4 5 6 7 8 9 10 11 12 13 14 15 16 17 18 19 20 21 22 23 24 25 26 27 28 29 30 31 32 33 34 35 36 37 38 39 40 41 42 43 44 45 46 47 48 49 50

000
ASUS43 KGRB 300511
RWRGRB

NORTH-CENTRAL AND NORTHEAST WISCONSIN REGIONAL WEATHER ROUNDUP
NATIONAL WEATHER SERVICE GREEN BAY WI
1200 AM CDT THU MAR 30 2017

WIZ005-009-010>012-018-019-300600-
NORTH CENTRAL WISCONSIN

CITY           SKY/WX    TMP DP  RH WIND       PRES   REMARKS
IRONWOOD       CLOUDY    38  28  67 E3        30.15F
MANITOWISH WTR CLOUDY    38  27  64 SE5       30.13F
ARBOR VITAE    CLOUDY    39  28  64 SE8       30.13F
EAGLE RIVER    CLOUDY    36  24  61 SE5       30.15F
LAND O LAKES   CLOUDY    37  26  64 SE6       30.17F
RHINELANDER    CLOUDY    37  27  67 E7        30.15F
PHILLIPS       MOCLDY    38  29  70 SE6       30.13F
ANTIGO         CLOUDY    33  25  71 E9        30.15F
TOMAHAWK       CLOUDY    36  26  67 E6        30.15F
MERRILL        CLOUDY    36  30  80 E6        30.15F
$$

WIZ013-073-300600-
NORTHEAST WISCONSIN

CITY           SKY/WX    TMP DP  RH WIND       PRES   REMARKS
IRON MOUNTAIN  CLOUDY    35  22  58 VRB5      30.18F
MARINETTE      MOCLDY    34  27  75 MISG        N/A
OCONTO         CLOUDY    34  30  86 NE3       30.19F
$$

WIZ017-030-035>037-045-300600-
CENTRAL WISCONSIN

CITY           SKY/WX    TMP DP  RH WIND       PRES   REMARKS
MEDFORD        CLOUDY    34  31  87 E6        30.12F
WAUSAU         CLOUDY    35  27  72 E10       30.12F
MOSINEE        FLURRIES  32  32 100 E10       30.14F
MARSHFIELD     MIX PCPN  35  32  88 E10       30.10F
WISC RAPIDS    LGT SNOW  34  34 100 E12       30.12F FOG
STEVENS POINT  LGT RAIN  32  32 100 E10       30.14F
WAUPACA        LGT RAIN  36  33  90 NE8       30.15F
SHAWANO        DRIZZLE   36  31  82 NE6       30.17F
CLINTONVILLE   LGT RAIN  34  32  93 NE7       30.15F
WAUTOMA        CLOUDY    35  32  88 E13       30.12F
$$

WIZ038-039-048-051-300600-
FOX VALLEY

CITY           SKY/WX    TMP DP  RH WIND       PRES   REMARKS
NWS GREEN BAY  LGT RAIN  36  34  92 NE10      30.16F
APPLETON       LGT RAIN  34  30  86 NE10      30.12F
OSHKOSH        CLOUDY    37  31  78 NE13      30.12F
FOND DU LAC    LGT RAIN  39  30  70 NE12      30.12F
$$

WIZ022-050-052-300600-
EAST CENTRAL WISCONSIN

CITY           SKY/WX    TMP DP  RH WIND       PRES   REMARKS
EPHRAIM        FAIR      36  32  87 E5        30.18F
WASHINGTON ISL CLOUDY    36  30  79 E8        30.20F
STURGEON BAY   LGT RAIN  34  32  92 N3        30.19F
MANITOWOC      LGT RAIN  36  34  92 NE6       30.16F
SHEBOYGAN      LGT RAIN  37  33  85 NE10      30.14F
$$

LMZ563-521-522-541>543-300600-
LAKESHORE

STATION/POSITION TIME  TEMP    WIND        PRES    VSBY  WAVE
                       AIR SEA DIR/SP/G                  HT/PER
                 (UTC) (F)     (DEG/KT/KT) (MB)    (MI)  (FT/S)
SHEBOYGAN LKSHOR 0500   38      50/ 12/ 12 1020.8F
KEWAUNEE LKSHORE 0448   36      30/  6/ 11 1021.3F
NORTHPORT PIER   0440   36      90/  8/ 11 1022.7F
SISTER BAY LKSHO 0436   37     110/  8/ 11   N/A
CHAMBERS ISLAND  0440   33      20/  4/  7 1022.4F
MENOMINEE LKSHOR 0448   34      10/ 11/ 12 1021.6F
$$



USA.gov is the U.S. government's official web portal to all federal, state and local government web resources and services.